Regional Weather Roundup
Issued by NWS State College, PA

Home | Current Version | Previous Version | Text Only | Print | Product List | Glossary Off
Versions: 1 2 3 4 5 6 7 8 9 10 11 12 13 14 15 16 17 18 19 20 21 22 23 24 25 26 27 28 29 30 31 32 33 34 35 36 37 38 39 40 41 42 43 44 45 46 47 48 49 50

000
ASUS41 KCTP 271603
RWRCTP

REGIONAL WEATHER ROUNDUP
NATIONAL WEATHER SERVICE STATE COLLEGE PA
1200 PM EDT WED AUG 27 2014

Note: "fair" indicates few or no clouds below 12,000 feet with no
significant weather and/or obstructions to visibility.

* = STATION THAT DOES NOT REPORT PRECIPITATION /E.G. RAIN...SNOW...ETC/
    THUNDER OR FOG.

PAZ002>004-007>009-013>016-020>023-029>032-271700-
WESTERN PENNSYLVANIA

CITY           SKY/WX    TMP DP  RH WIND       PRES   REMARKS
ERIE           CLOUDY    74  64  71 N7        30.08F
MEADVILLE      PTSUNNY   75  66  73 SW5       30.09F
FRANKLIN*      CLOUDY    75  64  69 NW6       30.11F
NEW CASTLE     PTSUNNY   83  71  66 CALM      30.09F
BEAVER COUNTY  CLOUDY    79  70  73 CALM      30.09F
BUTLER*        MOSUNNY   81  70  69 W5        30.10F
PITTSBURGH INT PTSUNNY   79  70  74 VRB3      30.09S
PITTSBURGH     CLOUDY    79  67  66 SW6       30.09F
INDIANA*       SUNNY     79  70  73 VRB7      30.13F
LATROBE        MOSUNNY   79  68  69 SW7       30.10F
WASHINGTON CO* MOSUNNY   81  70  69 S8        30.10F
$$

PAZ004>006-010>012-017>019-024>028-033>037-041-042-045-046-049>053-271700-
CENTRAL PENNSYLVANIA

CITY           SKY/WX    TMP DP  RH WIND       PRES   REMARKS
BRADFORD       PTSUNNY   75  63  66 NW10      30.10F
DUBOIS         MOSUNNY   77  67  71 W7        30.09F
CLEARFIELD     SUNNY     79  69  71 VRB6      30.08F
JOHNSTOWN      SUNNY     77  66  68 W8        30.14F
ALTOONA        SUNNY     79  67  66 NW5       30.10F
STATE COLLEGE  MOSUNNY   81  68  65 S6        30.06F
WILLIAMSPORT   SUNNY     80  64  58 CALM      30.01F
SELINSGROVE    SUNNY     81  68  64 SE5       30.03F
FT INDIANTOWN  MOSUNNY   80  66  64 SW6       30.04F
CAPITAL CITY   SUNNY     81  65  58 W7        30.04F
HARRISBURG     SUNNY     82  68  62 CALM      30.03F
YORK           PTSUNNY   81  68  64 CALM      30.05F
$$

PAZ038>040-043-044-047-048-054-055-060>062-067>071-271700-
EASTERN PENNSYLVANIA

CITY           SKY/WX    TMP DP  RH WIND       PRES   REMARKS
SCRANTON       SUNNY     80  63  55 VRB3      30.03F
MOUNT POCONO   SUNNY     80  64  58 VRB6      30.07F
ALLENTOWN      PTSUNNY   81  63  54 W8        30.02F
QUAKERTOWN*    SUNNY     84  66  54 MISG      30.04F
READING        PTSUNNY   83  63  50 NW5       30.02F
LANCASTER      CLOUDY    80  64  58 W7        30.04F
COATESVILLE    SUNNY     81  66  61 CALM      30.06F
POTTSTOWN      SUNNY     83  64  52 VRB5      30.04F
BLUE BELL      SUNNY     86  63  45 W5        30.02F
DOYLESTOWN     SUNNY     84  61  45 SW6       30.02F
WILLOW GROVE   NOT AVBL
NORTH PHILA    SUNNY     86  61  42 W6        30.03F
PHILADELPHIA   SUNNY     83  64  52 W9        30.03F
$$



USA.gov is the U.S. government's official web portal to all federal, state and local government web resources and services.